TimeCST,TemperatureF,Dew PointF,Humidity,Sea Level PressureIn,VisibilityMPH,Wind Direction,Wind SpeedMPH,Gust SpeedMPH,PrecipitationIn,Events,Conditions,WindDirDegrees,DateUTC
12:55 AM,57.4,54.5,90,30.14,10.0,North,11.5,-,N/A,,Clear,350,2012-11-24 06:55:00
1:55 AM,56.3,51.6,84,30.14,10.0,NNW,12.7,-,N/A,,Clear,340,2012-11-24 07:55:00
2:55 AM,54.3,47.5,78,30.14,10.0,NNW,13.8,-,N/A,,Clear,340,2012-11-24 08:55:00
3:55 AM,51.8,44.6,76,30.16,10.0,North,12.7,-,N/A,,Clear,350,2012-11-24 09:55:00
4:55 AM,49.6,41.4,73,30.18,10.0,North,10.4,-,N/A,,Clear,360,2012-11-24 10:55:00
5:55 AM,47.3,39.7,75,30.20,10.0,North,10.4,-,N/A,,Clear,360,2012-11-24 11:55:00
6:55 AM,46.6,39.7,77,30.23,10.0,North,10.4,-,N/A,,Clear,350,2012-11-24 12:55:00
7:55 AM,48.6,39.6,71,30.23,10.0,North,10.4,-,N/A,,Clear,360,2012-11-24 13:55:00
8:55 AM,51.8,39.2,62,30.23,10.0,North,12.7,-,N/A,,Clear,350,2012-11-24 14:55:00
9:55 AM,56.1,37.0,49,30.24,10.0,North,10.4,-,N/A,,Clear,10,2012-11-24 15:55:00
10:55 AM,57.9,36.1,44,30.21,10.0,North,12.7,-,N/A,,Clear,360,2012-11-24 16:55:00
11:55 AM,60.1,34.0,38,30.17,10.0,NNW,10.4,-,N/A,,Clear,340,2012-11-24 17:55:00
12:55 PM,61.5,33.1,34,30.15,10.0,NNW,6.9,-,N/A,,Clear,340,2012-11-24 18:55:00
1:18 PM,60.8,32.0,34,30.14,10.0,NW,9.2,-,N/A,,Light Drizzle,310,2012-11-24 19:18:00
1:27 PM,62.6,32.0,32,30.14,10.0,North,11.5,-,N/A,,Clear,360,2012-11-24 19:27:00
1:55 PM,61.9,32.4,33,30.14,10.0,NNW,9.2,-,0.00,,Clear,340,2012-11-24 19:55:00
2:20 PM,62.6,32.0,32,30.14,10.0,North,9.2,-,N/A,Rain,Light Rain,360,2012-11-24 20:20:00
2:28 PM,62.6,32.0,32,30.13,10.0,North,11.5,-,N/A,,Clear,10,2012-11-24 20:28:00
2:41 PM,62.6,32.0,32,30.14,10.0,NNW,9.2,-,N/A,,Light Drizzle,340,2012-11-24 20:41:00
2:50 PM,62.6,32.0,32,30.13,10.0,North,9.2,-,N/A,,Clear,350,2012-11-24 20:50:00
2:55 PM,61.5,32.4,33,30.13,10.0,North,10.4,-,0.00,,Clear,350,2012-11-24 20:55:00
3:55 PM,59.4,31.1,34,30.14,10.0,North,10.4,-,N/A,,Clear,350,2012-11-24 21:55:00
4:55 PM,55.0,30.9,40,30.15,10.0,North,10.4,-,N/A,,Clear,350,2012-11-24 22:55:00
5:55 PM,48.0,33.1,56,30.16,10.0,Variable,5.8,-,N/A,,Clear,0,2012-11-24 23:55:00
6:55 PM,45.9,34.2,64,30.17,10.0,North,5.8,-,N/A,,Clear,10,2012-11-25 00:55:00
7:55 PM,46.0,32.2,58,30.18,10.0,North,4.6,-,N/A,,Clear,360,2012-11-25 01:55:00
8:55 PM,44.2,32.5,63,30.18,10.0,North,4.6,-,N/A,,Clear,10,2012-11-25 02:55:00
9:55 PM,39.9,31.3,71,30.18,10.0,North,6.9,-,N/A,,Clear,360,2012-11-25 03:55:00
10:55 PM,42.8,30.4,62,30.17,10.0,North,4.6,-,N/A,,Clear,10,2012-11-25 04:55:00
11:55 PM,41.5,28.9,61,30.16,10.0,North,5.8,-,N/A,,Clear,360,2012-11-25 05:55:00